Orbital Elements at Epoch 2459200.5 (2020-Dec-17.0) TDB
Reference: JPL 18 (heliocentric ecliptic J2000)
Element | Value | Uncertainty (1-sigma) | Units |
e | .09785463397355458 | 3.8161e-08 | |
a | 2.278470282494222 | 9.15e-09 | au |
q | 2.055511406981128 | 8.8477e-08 | au |
i | 5.719917988580105 | 5.4948e-06 | deg |
node | 233.7485891722856 | 4.8643e-05 | deg |
peri | 47.24701841912265 | 5.9228e-05 | deg |
M | 217.3416073274742 | 3.4987e-05 | deg |
tp | 2459698.303912323319 (2022-Apr-28.80391232) | 0.00012311 | TDB |
period | 1256.2135678044 3.44 | 7.5672e-06 2.072e-08 | d yr |
n | .286575475083592 | 1.7263e-09 | deg/d |
Q | 2.501429158007316 | 1.0045e-08 | au |
|
| | Orbit Determination Parameters
Additional Information
|